| time (UTC) | temp C | wind direction | speed KPH | gust KPH | rain 1hr cm | rain 24hr cm | rain mn cm | humidity % | barometer mb |
| 20260508064015 | 12 | 12 | 0.0 | 3.2 | 0.00 | 0.00 | 0.00 | 89 | 1018.7 |
| 20260508063018 | 13 | 30 | 0.0 | 1.6 | 0.00 | 0.00 | 0.00 | 89 | 1018.6 |
| 20260508062016 | 13 | 327 | 0.0 | 3.2 | 0.00 | 0.00 | 0.00 | 89 | 1018.6 |
| 20260508061016 | 13 | 11 | 0.0 | 3.2 | 0.00 | 0.00 | 0.00 | 89 | 1018.6 |
| 20260508060057 | 13 | 308 | 1.6 | 4.8 | 0.00 | 0.00 | 0.00 | 89 | 1018.6 |
| 20260508055037 | 13 | 45 | 1.6 | 4.8 | 0.00 | 0.00 | 0.00 | 89 | 1018.5 |
| 20260508054017 | 13 | 13 | 0.0 | 4.8 | 0.00 | 0.00 | 0.00 | 88 | 1018.5 |
| 20260508053036 | 13 | 332 | 0.0 | 1.6 | 0.00 | 0.00 | 0.00 | 89 | 1018.5 |
| 20260508052017 | 13 | 334 | 0.0 | 1.6 | 0.00 | 0.00 | 0.00 | 89 | 1018.5 |
| 20260508051017 | 13 | 37 | 0.0 | 1.6 | 0.00 | 0.00 | 0.00 | 89 | 1018.5 |
| 20260508050017 | 13 | 334 | 0.0 | 3.2 | 0.00 | 0.00 | 0.00 | 89 | 1018.5 |
| 20260508045017 | 13 | 82 | 0.0 | 1.6 | 0.00 | 0.00 | 0.00 | 90 | 1018.5 |
| 20260508044037 | 13 | 326 | 0.0 | 1.6 | 0.00 | 0.00 | 0.00 | 91 | 1018.5 |
| 20260508043018 | 12 | 337 | 0.0 | 1.6 | 0.00 | 0.00 | 0.00 | 91 | 1018.3 |
| 20260508042019 | 13 | 302 | 1.6 | 3.2 | 0.00 | 0.00 | 0.00 | 90 | 1018.2 |
| 20260508041015 | 13 | 331 | 0.0 | 3.2 | 0.00 | 0.00 | 0.00 | 89 | 1018.0 |
| 20260508040015 | 13 | 314 | 0.0 | 3.2 | 0.00 | 0.00 | 0.00 | 88 | 1018.0 |
| 20260508035015 | 13 | 304 | 0.0 | 3.2 | 0.00 | 0.00 | 0.00 | 86 | 1017.8 |
| 20260508034036 | 13 | 312 | 1.6 | 3.2 | 0.00 | 0.00 | 0.00 | 86 | 1017.6 |
| 20260508033036 | 14 | 314 | 0.0 | 1.6 | 0.00 | 0.00 | 0.00 | 85 | 1017.6 |
| 20260508032018 | 14 | 333 | 0.0 | 3.2 | 0.00 | 0.00 | 0.00 | 82 | 1017.5 |
| 20260508031016 | 15 | 288 | 1.6 | 4.8 | 0.00 | 0.00 | 0.00 | 79 | 1017.4 |
| 20260508030037 | 15 | 343 | 0.0 | 3.2 | 0.00 | 0.00 | 0.00 | 79 | 1017.4 |
| 20260508025057 | 15 | 44 | 0.0 | 3.2 | 0.00 | 0.00 | 0.00 | 77 | 1017.3 |
| 20260508024017 | 16 | 51 | 0.0 | 1.6 | 0.00 | 0.00 | 0.00 | 76 | 1017.2 |
| 20260508023017 | 16 | 89 | 1.6 | 4.8 | 0.00 | 0.00 | 0.00 | 75 | 1017.2 |
| 20260508022037 | 16 | 15 | 0.0 | 1.6 | 0.00 | 0.00 | 0.00 | 73 | 1017.2 |
| 20260508021038 | 17 | 80 | 0.0 | 3.2 | 0.00 | 0.00 | 0.00 | 71 | 1017.2 |
| 20260508020018 | 17 | 334 | 1.6 | 4.8 | 0.00 | 0.00 | 0.00 | 69 | 1017.2 |
| 20260508015038 | 17 | 87 | 1.6 | 6.4 | 0.00 | 0.00 | 0.00 | 69 | 1017.2 |
| 20260508014018 | 18 | 288 | 0.0 | 3.2 | 0.00 | 0.00 | 0.00 | 67 | 1017.2 |
| 20260508013015 | 18 | 104 | 0.0 | 4.8 | 0.00 | 0.00 | 0.00 | 66 | 1017.1 |
| 20260508012015 | 19 | 110 | 0.0 | 4.8 | 0.00 | 0.00 | 0.00 | 64 | 1017.1 |
| 20260508011015 | 19 | 121 | 1.6 | 9.7 | 0.00 | 0.00 | 0.00 | 64 | 1017.1 |
| 20260508010017 | 20 | 118 | 1.6 | 8.0 | 0.00 | 0.00 | 0.00 | 60 | 1017.1 |
| 20260508005016 | 20 | 125 | 1.6 | 8.0 | 0.00 | 0.00 | 0.00 | 59 | 1017.1 |
| 20260508004016 | 20 | 299 | 1.6 | 6.4 | 0.00 | 0.00 | 0.00 | 59 | 1017.2 |
| 20260508003016 | 20 | 285 | 1.6 | 8.0 | 0.00 | 0.00 | 0.00 | 63 | 1017.2 |
| 20260508002016 | 21 | 128 | 1.6 | 9.7 | 0.00 | 0.00 | 0.00 | 61 | 1017.2 |
| 20260508001016 | 20 | 115 | 1.6 | 9.7 | 0.00 | 0.00 | 0.00 | 63 | 1017.1 |
| 20260508000017 | 21 | 108 | 3.2 | 8.0 | 0.00 | 0.00 | 0.00 | 63 | 1017.1 |
| 20260507235017 | 22 | 143 | 3.2 | 11.3 | 0.00 | 0.00 | 0.00 | 61 | 1017.0 |
| 20260507234018 | 22 | 125 | 1.6 | 8.0 | 0.00 | 0.00 | 0.00 | 60 | 1017.0 |
| 20260507233018 | 22 | 103 | 1.6 | 8.0 | 0.00 | 0.00 | 0.00 | 60 | 1017.1 |
| 20260507232017 | 22 | 140 | 1.6 | 6.4 | 0.00 | 0.00 | 0.00 | 58 | 1017.1 |
| 20260507231018 | 22 | 287 | 1.6 | 6.4 | 0.00 | 0.00 | 0.00 | 58 | 1017.2 |
| 20260507230018 | 22 | 123 | 3.2 | 11.3 | 0.00 | 0.00 | 0.00 | 57 | 1017.2 |
| 20260507225019 | 22 | 120 | 1.6 | 8.0 | 0.00 | 0.00 | 0.00 | 59 | 1017.3 |
| 20260507224018 | 22 | 292 | 1.6 | 6.4 | 0.00 | 0.00 | 0.00 | 59 | 1017.4 |
| 20260507223036 | 22 | 124 | 1.6 | 9.7 | 0.00 | 0.00 | 0.00 | 58 | 1017.5 |
| 20260507222016 | 21 | 107 | 1.6 | 6.4 | 0.00 | 0.00 | 0.00 | 60 | 1017.6 |
| 20260507221016 | 22 | 122 | 3.2 | 9.7 | 0.00 | 0.00 | 0.00 | 59 | 1017.7 |
| 20260507220037 | 21 | 326 | 1.6 | 12.9 | 0.00 | 0.00 | 0.00 | 59 | 1017.8 |
| 20260507215016 | 22 | 116 | 4.8 | 9.7 | 0.00 | 0.00 | 0.00 | 60 | 1017.8 |
| 20260507214016 | 22 | 328 | 1.6 | 8.0 | 0.00 | 0.00 | 0.00 | 58 | 1017.9 |
| 20260507213036 | 21 | 281 | 3.2 | 8.0 | 0.00 | 0.00 | 0.00 | 60 | 1018.0 |
| 20260507212016 | 21 | 117 | 1.6 | 6.4 | 0.00 | 0.00 | 0.00 | 60 | 1018.2 |
| 20260507211037 | 21 | 124 | 1.6 | 6.4 | 0.00 | 0.00 | 0.00 | 61 | 1018.3 |
| 20260507210017 | 21 | 301 | 3.2 | 12.9 | 0.00 | 0.00 | 0.00 | 61 | 1018.3 |
| 20260507205017 | 21 | 281 | 1.6 | 6.4 | 0.00 | 0.00 | 0.00 | 61 | 1018.4 |
| 20260507204017 | 21 | 110 | 3.2 | 8.0 | 0.00 | 0.00 | 0.00 | 62 | 1018.5 |
| 20260507203017 | 21 | 117 | 1.6 | 9.7 | 0.00 | 0.00 | 0.00 | 63 | 1018.5 |
| 20260507202017 | 21 | 118 | 3.2 | 8.0 | 0.00 | 0.00 | 0.00 | 62 | 1018.7 |
| 20260507201018 | 21 | 131 | 1.6 | 4.8 | 0.00 | 0.00 | 0.00 | 63 | 1018.7 |
| 20260507200018 | 20 | 146 | 1.6 | 4.8 | 0.00 | 0.00 | 0.00 | 64 | 1018.8 |
| 20260507195016 | 20 | 92 | 1.6 | 6.4 | 0.00 | 0.00 | 0.00 | 64 | 1018.9 |
| 20260507194036 | 20 | 94 | 1.6 | 4.8 | 0.00 | 0.00 | 0.00 | 64 | 1019.0 |
| 20260507193016 | 20 | 57 | 1.6 | 6.4 | 0.00 | 0.00 | 0.00 | 66 | 1019.2 |
| 20260507192036 | 19 | 87 | 1.6 | 8.0 | 0.00 | 0.00 | 0.00 | 66 | 1019.3 |
| 20260507191016 | 18 | 110 | 3.2 | 6.4 | 0.00 | 0.00 | 0.00 | 70 | 1019.4 |
| 20260507190016 | 18 | 110 | 1.6 | 6.4 | 0.00 | 0.00 | 0.00 | 70 | 1019.5 |
| 20260507185016 | 18 | 101 | 1.6 | 6.4 | 0.00 | 0.00 | 0.00 | 71 | 1019.6 |
| 20260507184017 | 17 | 78 | 1.6 | 6.4 | 0.00 | 0.00 | 0.00 | 75 | 1019.6 |
| 20260507183037 | 16 | 106 | 1.6 | 4.8 | 0.00 | 0.00 | 0.00 | 76 | 1019.7 |
| 20260507182017 | 16 | 62 | 1.6 | 6.4 | 0.00 | 0.00 | 0.00 | 77 | 1019.8 |
| 20260507181017 | 16 | 23 | 1.6 | 6.4 | 0.00 | 0.00 | 0.00 | 80 | 1019.7 |
| 20260507180017 | 16 | 85 | 1.6 | 6.4 | 0.00 | 0.00 | 0.00 | 80 | 1019.7 |
| 20260507175017 | 15 | 337 | 1.6 | 8.0 | 0.00 | 0.00 | 0.00 | 83 | 1019.7 |
| 20260507174037 | 15 | 70 | 1.6 | 4.8 | 0.00 | 0.00 | 0.00 | 83 | 1019.7 |
| 20260507173017 | 14 | 309 | 1.6 | 6.4 | 0.00 | 0.00 | 0.00 | 85 | 1019.6 |
| 20260507172018 | 14 | 18 | 1.6 | 3.2 | 0.00 | 0.00 | 0.00 | 86 | 1019.6 |
| 20260507171018 | 14 | 90 | 0.0 | 3.2 | 0.00 | 0.00 | 0.00 | 87 | 1019.6 |
| 20260507170018 | 13 | 86 | 0.0 | 3.2 | 0.00 | 0.00 | 0.00 | 88 | 1019.6 |
| 20260507165016 | 13 | 291 | 0.0 | 3.2 | 0.00 | 0.00 | 0.00 | 88 | 1019.6 |
| 20260507164016 | 13 | 303 | 3.2 | 4.8 | 0.00 | 0.00 | 0.00 | 89 | 1019.7 |
| 20260507163017 | 13 | 54 | 1.6 | 3.2 | 0.00 | 0.00 | 0.00 | 91 | 1019.7 |
| 20260507162037 | 13 | 69 | 1.6 | 4.8 | 0.00 | 0.00 | 0.00 | 90 | 1019.7 |
| 20260507161037 | 13 | 312 | 1.6 | 3.2 | 0.00 | 0.00 | 0.00 | 91 | 1019.6 |
| 20260507160038 | 13 | 307 | 1.6 | 4.8 | 0.00 | 0.00 | 0.00 | 91 | 1019.6 |
| 20260507155037 | 13 | 298 | 1.6 | 4.8 | 0.00 | 0.00 | 0.00 | 91 | 1019.6 |
| 20260507154017 | 12 | 307 | 0.0 | 3.2 | 0.00 | 0.00 | 0.00 | 93 | 1019.5 |
| 20260507153018 | 12 | 296 | 3.2 | 4.8 | 0.00 | 0.00 | 0.00 | 93 | 1019.6 |
| 20260507152018 | 12 | 297 | 3.2 | 4.8 | 0.00 | 0.00 | 0.00 | 93 | 1019.5 |
| 20260507151018 | 12 | 304 | 1.6 | 4.8 | 0.00 | 0.00 | 0.00 | 93 | 1019.6 |
| 20260507150016 | 12 | 309 | 1.6 | 4.8 | 0.00 | 0.00 | 0.00 | 94 | 1019.6 |
| 20260507145015 | 12 | 301 | 3.2 | 4.8 | 0.00 | 0.00 | 0.00 | 93 | 1019.6 |
| 20260507144016 | 12 | 314 | 1.6 | 3.2 | 0.00 | 0.00 | 0.00 | 93 | 1019.5 |
| 20260507143016 | 12 | 303 | 1.6 | 4.8 | 0.00 | 0.00 | 0.00 | 93 | 1019.5 |
| 20260507142016 | 12 | 302 | 3.2 | 4.8 | 0.00 | 0.00 | 0.00 | 93 | 1019.4 |
| 20260507141017 | 12 | 303 | 1.6 | 6.4 | 0.00 | 0.00 | 0.00 | 93 | 1019.4 |
| 20260507140016 | 12 | 300 | 1.6 | 3.2 | 0.00 | 0.00 | 0.00 | 93 | 1019.3 |
| 20260507135017 | 12 | 308 | 0.0 | 1.6 | 0.00 | 0.00 | 0.00 | 93 | 1019.3 |
| 20260507134037 | 12 | 308 | 1.6 | 4.8 | 0.00 | 0.00 | 0.00 | 93 | 1019.2 |
| 20260507133017 | 12 | 308 | 1.6 | 3.2 | 0.00 | 0.00 | 0.00 | 93 | 1019.1 |
| 20260507132018 | 12 | 301 | 1.6 | 4.8 | 0.00 | 0.00 | 0.00 | 93 | 1019.1 |
| 20260507131017 | 12 | 302 | 1.6 | 3.2 | 0.00 | 0.00 | 0.00 | 93 | 1018.9 |
| 20260507130017 | 12 | 301 | 1.6 | 3.2 | 0.00 | 0.00 | 0.00 | 93 | 1019.0 |
| 20260507125018 | 12 | 333 | 0.0 | 3.2 | 0.00 | 0.00 | 0.00 | 93 | 1018.9 |
| 20260507124038 | 12 | 305 | 1.6 | 3.2 | 0.00 | 0.00 | 0.00 | 93 | 1018.9 |
| 20260507123039 | 12 | 327 | 0.0 | 3.2 | 0.00 | 0.00 | 0.00 | 92 | 1018.9 |
| 20260507122018 | 12 | 343 | 0.0 | 1.6 | 0.00 | 0.00 | 0.00 | 93 | 1019.0 |
| 20260507121015 | 12 | 292 | 1.6 | 6.4 | 0.00 | 0.00 | 0.00 | 92 | 1019.0 |
| 20260507120016 | 12 | 314 | 0.0 | 3.2 | 0.00 | 0.00 | 0.00 | 92 | 1019.0 |
| 20260507115015 | 12 | 313 | 0.0 | 1.6 | 0.00 | 0.00 | 0.00 | 92 | 1019.1 |
| 20260507114056 | 12 | 345 | 0.0 | 1.6 | 0.00 | 0.00 | 0.00 | 93 | 1019.2 |
| 20260507113016 | 12 | 55 | 0.0 | 3.2 | 0.00 | 0.00 | 0.00 | 92 | 1019.2 |
| 20260507112016 | 12 | 24 | 0.0 | 3.2 | 0.00 | 0.00 | 0.00 | 92 | 1019.2 |
| 20260507111016 | 12 | 35 | 0.0 | 3.2 | 0.00 | 0.00 | 0.00 | 92 | 1019.2 |
| 20260507110037 | 13 | 310 | 0.0 | 1.6 | 0.00 | 0.00 | 0.00 | 91 | 1019.2 |
| 20260507105017 | 13 | 305 | 0.0 | 3.2 | 0.00 | 0.00 | 0.00 | 92 | 1019.3 |
| 20260507104017 | 13 | 350 | 0.0 | 1.6 | 0.00 | 0.00 | 0.00 | 92 | 1019.2 |
| 20260507103037 | 13 | 7 | 0.0 | 1.6 | 0.00 | 0.00 | 0.00 | 92 | 1019.3 |
| 20260507102017 | 13 | 339 | 0.0 | 1.6 | 0.00 | 0.00 | 0.00 | 91 | 1019.2 |
| 20260507101037 | 13 | 41 | 0.0 | 1.6 | 0.00 | 0.00 | 0.00 | 91 | 1019.1 |
| 20260507100018 | 13 | 21 | 0.0 | 3.2 | 0.00 | 0.00 | 0.00 | 91 | 1019.2 |
| 20260507095018 | 13 | 345 | 0.0 | 1.6 | 0.00 | 0.00 | 0.00 | 91 | 1019.2 |
| 20260507094018 | 13 | 34 | 0.0 | 3.2 | 0.00 | 0.00 | 0.00 | 91 | 1019.3 |
| 20260507093016 | 13 | 321 | 0.0 | 1.6 | 0.00 | 0.00 | 0.00 | 90 | 1019.3 |
| 20260507092019 | 13 | 343 | 0.0 | 1.6 | 0.00 | 0.00 | 0.00 | 90 | 1019.4 |
| 20260507091016 | 13 | 266 | 0.0 | 0.0 | 0.00 | 0.00 | 0.00 | 90 | 1019.5 |
| 20260507090016 | 13 | 8 | 0.0 | 1.6 | 0.00 | 0.00 | 0.00 | 90 | 1019.6 |
| 20260507085016 | 13 | 40 | 0.0 | 3.2 | 0.00 | 0.00 | 0.00 | 90 | 1019.6 |
| 20260507084036 | 13 | 303 | 1.6 | 3.2 | 0.00 | 0.00 | 0.00 | 90 | 1019.6 |
| 20260507083036 | 13 | 337 | 0.0 | 3.2 | 0.00 | 0.00 | 0.00 | 90 | 1019.6 |
| 20260507082016 | 13 | 21 | 0.0 | 3.2 | 0.00 | 0.00 | 0.00 | 90 | 1019.6 |
| 20260507081016 | 13 | 220 | 0.0 | 1.6 | 0.00 | 0.00 | 0.00 | 89 | 1019.6 |
| 20260507080017 | 13 | 353 | 0.0 | 3.2 | 0.00 | 0.00 | 0.00 | 89 | 1019.7 |
| 20260507075017 | 13 | 304 | 0.0 | 3.2 | 0.00 | 0.00 | 0.00 | 89 | 1019.7 |
| 20260507074017 | 13 | 302 | 0.0 | 3.2 | 0.00 | 0.00 | 0.00 | 89 | 1019.6 |
| 20260507073017 | 13 | 317 | 0.0 | 1.6 | 0.00 | 0.00 | 0.00 | 89 | 1019.7 |
| 20260507072017 | 13 | 310 | 0.0 | 3.2 | 0.00 | 0.00 | 0.00 | 89 | 1019.7 |
| 20260507071017 | 13 | 316 | 1.6 | 4.8 | 0.00 | 0.00 | 0.00 | 89 | 1019.8 |
| 20260507070018 | 13 | 335 | 0.0 | 1.6 | 0.00 | 0.00 | 0.00 | 89 | 1019.8 |
| 20260507065038 | 13 | 358 | 0.0 | 3.2 | 0.00 | 0.00 | 0.00 | 89 | 1019.9 |